User: anonymous   Login
Location: Haliburton Scout Reserve
(45.0900°N, 78.3200°W)
Time: 18:02:16
(UTC-05:00)
Language:

DOVE 4 - Orbit

View from above orbital plane
View from above orbital plane
View from above satellite
View from above satellite

Ground track
Ground track

The orbit data is extracted from the following two-line orbital elements,

1 39430U 13066Q   23337.68455035  .00003203  00000-0  54883-3 0  9998
2 39430  97.7559 218.8278 0143525 156.0908 204.7050 14.62839224534302
Epoch (UTC): 03 December 2023 16:25:45
Eccentricity: 0.0143525
inclination: 97.7559°
perigee height: 582 km
apogee height: 785 km
right ascension of ascending node: 218.8278°
argument of perigee: 156.0908°
revolutions per day: 14.62839224
mean anomaly at epoch: 204.7050°
orbit number at epoch: 53430

The dashed part of the orbit path shows where the satellite is in the earth's shadow,  

DLR